Temperature
15 15 16 16 13 10 13 13 14 16 16 17 17 17 15 15 16 15 15 15 15 15 15 15 15 15 15 15 15 15 15 15 15 15 15 15 16 16 16 15 15 15 15 15 15 15 15 15 15
15 16 16 15 11 11 13 13 14 15 17 17 17 17 15 15 15 15 14 14 15 15 15 15 15 15 15 15 15 15 15 15 15 15 15 15 15 15 15 15 15 15 15 15 15 15 15 15 15
15 16 16 11 11 12 14 14 14 15 17 17 16 16 15 15 14 14 14 14 14 15 15 14 14 14 14 15 15 15 15 15 15 15 15 15 15 15 15 15 15 15 15 15 15 15 15 14 14
15 16 14 11 12 12 13 14 15 15 17 17 16 15 15 15 15 15 15 14 14 14 14 14 14 14 14 14 14 14 15 15 15 15 15 15 15 15 15 15 15 14 15 15 15 15 14 14 14
15 15 11 11 12 12 13 14 15 15 16 16 16 14 14 14 14 14 15 14 14 14 14 14 14 14 14 14 14 14 14 14 14 14 14 14 14 14 14 14 14 14 14 14 14 14 14 14 14
15 12 10 11 12 13 13 16 16 15 15 16 15 13 13 14 14 14 14 14 14 14 14 14 14 14 14 14 14 14 14 14 14 14 14 14 14 14 14 14 14 14 14 14 14 14 14 14 14
13 10 10 11 12 13 14 16 15 14 14 15 16 13 13 13 14 14 14 14 14 14 13 13 13 13 13 13 13 14 14 14 14 14 14 14 14 14 14 14 14 14 14 14 14 14 14 14 13
14 10 12 11 12 13 14 15 16 15 15 16 15 13 13 13 13 13 13 13 13 13 13 13 13 13 13 13 13 13 13 13 13 13 13 13 13 13 13 13 13 14 13 14 14 14 14 14 13
14 10 10 11 13 13 14 14 15 15 15 15 15 15 15 14 13 13 13 13 13 13 13 12 12 12 13 13 13 13 13 13 13 13 13 13 13 13 13 13 13 13 13 13 13 13 13 13 13
12 9 11 12 13 13 14 14 14 14 14 14 14 14 14 14 13 13 13 13 13 13 12 12 12 12 12 12 12 12 12 12 12 12 12 13 13 13 13 13 13 13 13 13 13 13 13 13 13
11 10 11 12 13 14 13 14 14 13 12 13 13 14 13 13 13 13 13 13 13 12 12 12 12 12 12 12 12 12 12 12 12 12 12 12 12 12 12 13 12 12 12 12 12 12 12 12 12
11 11 12 13 13 13 13 13 13 13 13 14 14 14 13 13 13 13 13 13 12 12 12 12 12 12 12 12 12 12 12 12 12 12 12 12 12 12 12 12 12 12 12 12 12 12 12 12 12
11 11 12 13 13 13 13 12 12 12 14 14 14 13 13 13 13 13 13 12 12 12 12 12 12 11 11 12 12 12 12 12 12 11 11 11 12 12 12 12 12 12 12 12 12 12 12 12 12
11 11 11 12 12 12 12 11 11 12 13 13 13 13 13 13 13 12 12 12 12 12 12 11 11 11 11 11 11 11 11 11 11 11 11 11 11 11 12 12 12 12 12 12 12 12 12 12 12
11 10 10 11 11 12 11 10 10 13 13 12 12 12 12 12 12 12 12 12 12 11 11 11 11 11 11 11 11 11 11 11 11 11 11 11 11 11 11 11 11 11 11 11 11 11 11 11 11
10 9 9 10 10 11 10 10 10 12 12 11 12 12 12 12 12 12 12 12 11 11 11 11 11 11 11 11 11 11 11 11 11 10 11 11 11 11 11 11 11 11 11 11 11 11 11 11 11
9 8 9 10 10 10 9 9 10 12 11 11 11 11 12 12 12 12 11 11 11 11 11 10 10 10 10 10 10 10 10 10 10 10 10 10 10 10 10 10 10 10 10 10 10 10 10 10 10
8 8 9 9 10 9 8 8 9 11 10 10 11 11 11 11 11 11 11 11 11 11 10 10 10 10 10 10 10 10 10 10 10 10 10 10 10 10 10 10 10 10 10 10 10 10 10 10 10
9 9 9 9 10 9 8 9 9 10 9 9 10 10 11 11 11 11 11 11 11 10 10 10 10 10 10 10 10 9 9 9 9 9 10 10 10 10 9 9 9 9 9 9 9 9 9 9 9
9 8 8 8 9 9 8 8 8 9 9 10 10 10 11 11 11 11 11 10 10 10 10 10 9 9 9 9 9 9 9 9 9 9 9 9 9 9 9 9 9 9 9 9 9 9 9 9 9
8 8 8 8 8 8 8 7 8 9 9 10 10 10 11 11 10 10 10 10 10 10 10 10 9 9 9 9 9 9 8 9 8 9 9 9 9 9 9 9 9 9 9 9 9 8 8 8 8
8 8 8 8 7 6 7 6 7 8 8 8 9 9 10 10 10 10 10 10 10 10 9 9 9 9 9 8 8 8 8 8 8 8 8 8 8 8 8 8 8 8 8 8 8 8 8 8 8
8 8 8 8 7 6 6 6 6 7 7 8 7 8 9 10 10 10 10 10 9 9 9 9 9 8 8 8 8 8 8 8 8 8 8 8 8 8 8 8 8 8 8 8 8 8 8 8 8
7 7 7 6 6 6 6 6 6 6 7 7 7 8 9 9 9 9 9 9 9 9 9 8 8 8 8 8 8 7 7 7 7 7 7 7 8 8 8 8 8 8 8 7 7 7 7 7 7
7 6 6 6 5 6 6 6 6 7 7 7 7 8 9 9 9 9 9 8 8 8 8 8 8 7 7 7 7 7 7 7 7 7 7 7 7 7 7 7 7 7 7 7 7 7 7 7 7
5 6 5 6 6 5 6 5 6 7 7 7 8 8 8 8 8 8 8 8 8 8 8 7 7 7 7 7 7 7 7 7 7 7 7 7 7 7 7 7 7 7 7 7 7 7 7 7 6
5 5 5 5 5 5 5 5 6 6 6 6 6 6 7 7 7 8 8 8 7 7 7 7 7 7 6 6 6 6 6 6 6 6 6 6 7 6 6 6 6 6 6 6 6 6 6 6 6
5 5 4 4 5 5 5 5 5 5 5 5 5 5 6 7 7 7 7 7 7 7 7 6 6 6 6 6 6 6 6 6 6 6 6 6 6 6 6 6 6 6 6 6 6 6 6 6 6
4 4 4 3 4 5 5 4 5 5 5 4 4 5 5 6 6 6 6 6 6 6 6 6 6 6 6 6 5 5 6 6 6 6 6 6 6 6 6 6 6 6 6 6 5 5 5 5 5
3 3 3 3 3 3 3 4 4 4 4 4 4 4 5 5 5 5 5 5 6 6 5 5 5 5 5 5 5 5 5 5 5 5 5 5 5 5 5 5 5 5 5 5 5 5 5 5 5
Wind_Speed
7 5 3 4 6 5 2 4 3 1 1 2 2 6 7 5 4 5 2 4 7 7 8 9 9 9 9 9 9 9 9 8 8 7 7 8 8 8 8 8 8 9 9 9 9 10 10 11 12
4 3 5 5 5 2 4 4 4 4 4 3 3 4 5 4 3 6 3 4 8 8 8 8 9 9 9 9 9 9 8 8 7 7 7 7 7 7 7 7 8 8 9 9 9 9 10 11 11
4 3 5 5 4 6 5 4 6 3 2 3 3 4 4 4 4 4 3 7 8 7 8 8 10 9 9 8 8 8 8 7 6 6 6 6 6 7 7 7 7 8 9 9 9 9 10 10 10
4 5 5 4 3 5 5 4 3 3 1 2 4 4 2 1 4 4 6 8 8 6 7 8 9 9 8 8 8 7 7 7 6 6 5 5 5 5 6 6 6 7 8 9 9 9 9 9 9
4 4 4 0 3 3 4 4 4 3 3 1 4 4 1 2 4 7 8 8 8 6 6 7 9 9 8 7 7 7 7 6 6 6 5 5 4 4 5 6 6 7 8 8 8 8 8 9 8
4 4 4 3 4 3 3 4 3 3 2 1 4 5 2 0 5 6 7 7 7 7 5 7 8 8 8 7 6 6 6 6 6 5 5 4 4 4 5 5 6 7 8 8 8 8 8 8 8
5 4 4 4 3 3 4 2 4 4 3 3 5 6 2 2 3 6 7 7 6 6 5 4 5 6 7 6 6 5 5 5 5 5 4 4 4 4 4 5 6 7 7 8 7 8 8 8 8
5 4 2 3 4 4 3 1 2 5 4 2 5 7 5 5 4 6 6 6 5 5 4 3 3 5 5 5 5 5 5 5 5 4 4 4 4 3 4 4 5 7 8 8 7 7 7 7 7
4 3 4 5 5 4 2 1 1 1 3 2 1 4 5 8 7 7 5 4 3 3 3 3 3 3 4 5 5 5 5 5 4 4 4 4 3 3 3 3 5 7 7 8 7 7 7 7 7
4 4 6 4 4 3 2 2 2 2 1 1 2 2 5 8 8 8 6 5 4 4 3 3 3 2 3 4 4 4 4 4 4 3 3 3 2 2 2 3 4 6 7 7 7 7 7 6 6
4 6 4 3 3 2 1 2 1 4 4 6 6 5 6 6 7 7 6 6 5 5 4 3 3 2 3 2 3 3 3 3 3 3 4 3 3 2 2 2 3 4 5 5 5 5 5 5 5
3 4 4 3 2 2 3 3 2 5 7 6 8 9 8 8 8 8 7 6 5 4 4 3 3 2 3 3 3 3 3 2 2 3 4 4 2 2 1 1 2 3 4 4 3 4 4 5 5
4 4 3 4 3 3 3 4 4 6 7 4 5 7 8 9 8 7 7 6 6 5 4 4 3 3 3 3 2 3 3 2 3 3 4 4 3 2 1 1 2 2 4 4 3 4 4 4 4
4 4 4 4 4 3 4 5 4 9 6 4 6 7 7 8 8 6 5 5 5 6 5 5 4 4 4 4 3 3 3 3 3 3 4 5 4 3 2 2 2 2 3 4 4 4 4 3 3
1 2 5 5 5 4 2 7 8 9 4 5 6 7 7 8 7 7 8 7 6 6 5 5 5 5 5 4 4 3 3 3 2 2 4 4 4 4 3 2 2 2 3 4 4 3 4 3 2
1 1 5 5 5 4 5 10 8 6 6 7 7 7 7 7 7 7 7 6 6 6 5 5 5 4 4 4 3 3 3 3 2 3 3 4 4 5 3 2 2 3 3 3 3 3 3 3 2
1 3 6 5 4 4 7 9 7 5 7 8 8 7 7 6 6 6 6 6 6 6 6 5 4 4 4 3 3 3 3 2 2 2 3 3 4 5 4 3 2 3 3 3 3 3 3 3 2
5 5 5 6 4 4 7 11 9 6 7 8 7 7 7 7 8 6 6 6 6 5 5 5 4 4 3 2 2 2 2 1 1 2 3 3 4 4 4 3 3 3 3 3 3 3 3 3 3
4 5 7 6 4 4 9 12 11 8 7 8 7 7 7 8 6 5 5 5 4 4 4 5 4 4 3 2 2 2 2 2 1 1 3 4 4 4 4 3 3 4 4 4 4 3 4 2 3
6 7 6 6 4 4 8 11 9 8 8 8 8 9 8 6 4 4 4 4 4 4 4 5 5 4 4 3 3 2 2 2 2 1 1 3 4 4 4 4 4 4 4 5 5 4 2 2 2
8 8 8 6 6 4 5 8 7 5 5 5 6 7 7 8 8 6 5 5 4 4 4 4 4 4 4 4 2 2 1 1 0 1 1 2 3 4 4 5 5 4 5 5 6 6 5 4 2
9 6 6 5 3 5 2 5 7 4 4 5 5 5 6 6 6 6 6 5 4 4 3 3 3 3 3 4 4 4 3 2 3 2 2 2 2 3 4 5 5 5 4 5 6 5 4 6 4
6 5 5 6 5 5 4 4 7 3 4 6 5 5 5 5 6 7 6 6 4 3 3 3 3 3 2 3 4 4 2 2 1 1 2 2 1 2 3 4 4 4 4 4 5 5 5 5 5
3 3 2 0 2 6 8 6 6 4 5 4 3 3 4 4 5 5 5 4 3 3 3 3 3 2 2 3 3 3 3 2 2 2 2 2 1 1 2 3 4 4 4 5 5 5 5 5 4
2 2 1 2 3 7 4 5 6 5 4 4 4 3 3 4 5 5 5 4 4 3 3 3 3 2 2 3 3 3 3 4 5 4 3 3 2 2 3 3 3 3 4 5 5 5 5 5 6
3 4 4 5 6 5 2 6 4 3 2 1 2 1 1 3 3 5 5 5 4 4 3 3 3 2 2 2 2 2 3 2 2 3 3 3 3 3 3 3 4 4 5 4 4 4 4 4 5
2 4 4 3 2 3 4 3 4 5 5 5 3 3 1 1 2 3 4 4 4 4 3 4 3 2 2 2 2 2 2 2 2 2 2 2 2 2 3 3 4 3 4 4 3 3 4 4 5
2 2 1 2 4 5 4 3 2 3 3 3 3 2 2 1 1 1 2 2 2 3 2 2 3 3 2 2 2 2 2 2 2 2 3 2 2 2 2 2 3 3 3 3 3 3 3 4 4
1 1 1 2 3 3 3 3 1 1 1 2 2 3 2 1 1 0 0 1 1 1 1 2 1 1 1 1 2 2 2 2 2 2 3 3 2 2 3 3 3 3 3 3 3 4 4 5 5
2 2 1 2 4 3 3 3 3 2 3 3 4 4 3 2 1 0 0 1 1 1 1 1 1 1 2 2 1 2 2 1 2 2 3 2 2 2 3 3 3 4 4 4 4 5 5 5 6
Wind_Direction
341 360 80 61 60 59 216 245 222 223 190 195 114 113 119 113 138 158 160 144 135 139 142 138 134 133 129 127 123 119 118 117 114 112 111 114 119 124 126 124 123 125 121 119 120 121 121 119 119
352 41 60 63 94 128 255 242 211 220 198 155 95 98 90 80 86 111 121 139 132 136 139 140 137 134 129 127 127 124 121 118 117 119 116 115 121 125 127 126 126 126 124 123 125 126 126 125 123
354 64 83 81 130 181 210 222 205 209 201 142 90 68 103 126 126 139 160 143 126 126 134 142 139 136 132 129 131 128 126 123 120 120 120 119 122 126 127 128 127 129 128 128 128 131 129 127 125
59 50 60 87 197 222 205 213 189 152 84 83 113 75 67 79 150 154 140 132 126 123 131 142 142 139 136 134 132 133 131 130 126 121 123 125 127 131 130 132 134 134 133 133 131 134 135 131 128
63 79 82 102 234 247 227 226 189 161 167 129 119 115 83 355 115 123 125 126 130 128 125 138 141 138 138 138 134 136 137 137 135 130 128 132 133 140 140 136 141 140 138 139 136 135 137 139 135
60 75 113 205 229 240 248 224 172 162 174 138 121 124 174 123 122 128 123 124 128 134 126 137 142 140 140 140 139 138 144 144 143 139 135 132 136 140 143 148 149 146 143 141 140 140 142 142 140
111 113 173 196 211 238 239 193 161 167 170 189 147 131 167 210 168 133 119 115 113 117 118 128 140 143 143 144 147 147 147 146 144 142 137 129 128 133 146 151 155 154 151 145 145 145 146 145 139
130 122 184 206 204 234 238 168 173 161 180 178 137 151 187 209 168 119 105 106 109 111 117 116 129 142 144 145 149 147 144 143 139 133 127 124 121 128 143 153 161 160 157 152 152 151 148 147 139
104 99 205 211 198 226 242 147 15 124 119 90 115 173 189 155 136 117 107 100 116 128 133 125 115 134 147 153 156 146 145 145 141 137 130 124 119 133 148 160 163 166 164 160 156 158 154 146 138
109 173 216 221 201 199 226 191 191 105 92 90 36 39 125 138 142 144 152 159 162 170 167 158 147 144 150 158 146 146 148 144 138 134 132 123 120 140 157 167 169 168 167 164 162 162 157 146 136
160 192 207 251 235 193 207 246 210 154 214 209 190 175 151 153 157 163 174 180 182 183 179 171 160 157 164 143 143 144 142 142 142 140 140 132 119 115 129 137 158 164 160 159 163 153 150 147 140
183 222 207 236 237 203 203 207 232 206 221 210 189 172 164 170 176 179 183 189 183 182 192 186 165 166 178 155 152 150 141 139 145 153 151 137 114 104 116 130 149 150 152 150 149 144 146 144 144
224 245 242 241 246 228 217 222 229 243 240 214 178 173 180 184 190 194 190 187 182 188 198 192 181 189 177 157 163 155 156 160 172 165 166 156 145 154 144 147 152 158 155 153 150 145 142 141 142
216 228 257 258 250 243 230 252 227 249 228 201 185 193 197 195 194 191 189 193 193 195 200 196 194 198 175 165 169 173 166 168 167 171 175 164 154 156 160 165 160 165 166 165 160 157 148 148 143
246 282 290 251 227 232 215 269 235 238 198 206 208 204 206 205 198 197 196 194 195 196 195 199 199 186 174 171 173 169 170 167 167 180 180 171 165 162 161 173 176 178 167 154 143 139 138 138 136
346 256 265 260 208 198 173 256 257 227 197 221 225 217 211 213 204 200 196 192 191 186 191 203 194 179 177 172 172 170 168 167 171 181 183 180 175 168 159 171 185 177 155 143 150 155 155 155 150
278 245 249 272 217 188 196 246 264 224 202 225 230 224 215 213 212 207 195 189 187 186 190 193 177 172 172 168 163 164 160 163 167 174 180 187 185 177 165 170 177 165 149 149 162 163 161 158 145
230 239 254 249 244 210 230 250 264 248 220 229 230 222 214 210 214 203 191 186 182 184 186 180 171 170 161 145 129 135 140 163 171 181 192 190 187 181 169 164 167 158 155 157 150 150 148 146 140
223 236 254 259 250 235 246 258 262 251 237 238 236 226 218 217 212 191 182 176 170 175 176 175 170 173 159 156 163 168 188 193 204 213 203 195 189 184 172 169 169 168 171 165 153 143 142 130 124
248 254 265 286 274 249 265 270 265 246 232 227 227 224 218 210 199 191 178 165 168 175 177 173 175 177 178 178 183 181 177 197 209 214 217 199 188 187 179 170 178 176 169 161 157 149 147 150 144
250 237 247 263 304 297 295 293 269 257 236 233 227 215 205 196 196 193 179 178 171 174 178 178 181 181 181 167 140 107 84 72 182 224 232 221 196 192 184 176 175 179 175 176 174 173 164 172 185
253 244 241 245 267 273 222 281 278 255 259 247 239 214 202 197 188 180 179 179 180 183 176 169 172 174 172 155 156 165 181 201 221 216 219 236 201 187 188 180 177 177 179 179 181 184 177 171 178
246 267 251 242 229 263 245 231 280 287 256 252 243 221 209 193 179 175 178 179 175 164 158 161 154 154 154 156 166 176 193 208 214 209 205 214 217 189 183 177 177 180 185 187 185 183 182 183 182
278 328 300 310 162 247 225 200 275 248 238 252 240 227 211 188 172 166 162 150 139 134 138 142 146 157 162 165 170 181 189 193 196 207 206 208 212 203 192 184 182 184 186 192 194 189 187 189 185
21 72 334 284 237 247 216 197 251 268 251 207 198 207 210 177 169 162 156 152 149 145 147 148 154 167 175 177 184 190 194 195 201 202 205 202 210 222 211 199 197 194 192 192 190 191 192 192 190
251 187 197 223 226 262 228 215 254 304 321 51 122 125 122 143 164 174 172 167 165 165 163 159 163 174 178 180 193 198 194 196 206 206 204 204 208 216 210 201 200 195 189 188 185 197 199 196 198
251 235 219 203 244 247 242 263 315 1 15 21 46 61 62 116 150 173 166 162 163 167 175 174 168 171 186 194 196 203 198 194 204 214 210 208 210 216 203 202 202 197 189 186 182 197 205 200 204
238 226 113 201 220 238 245 241 254 317 342 2 359 345 324 354 62 117 154 157 170 177 176 163 166 185 193 192 200 207 206 205 206 206 216 216 213 208 202 212 209 207 200 195 193 198 207 208 211
343 324 259 235 229 215 237 258 277 305 351 345 313 318 304 298 229 228 191 150 123 102 122 141 158 175 204 219 218 210 215 210 207 213 225 220 212 203 217 220 212 208 208 203 199 204 199 207 213
213 213 162 229 260 236 238 263 355 11 357 349 330 329 327 317 333 329 11 69 78 93 121 155 190 201 228 233 234 232 229 211 210 224 233 219 207 208 217 216 215 213 212 205 205 209 206 206 210
Height
1507 1507 1509 1511 1515 1527 1527 1520 1513 1509 1508 1507 1506 1506 1507 1510 1514 1520 1517 1516 1518 1519 1521 1522 1524 1525 1526 1527 1528 1528 1529 1530 1531 1531 1532 1533 1533 1534 1535 1535 1536 1537 1537 1538 1538 1539 1539 1540 1541
1507 1508 1510 1511 1522 1533 1527 1516 1512 1507 1506 1506 1506 1507 1507 1510 1511 1512 1513 1516 1517 1519 1520 1522 1523 1524 1525 1526 1527 1528 1529 1529 1530 1531 1532 1532 1533 1534 1534 1535 1536 1536 1537 1538 1538 1539 1540 1540 1541
1507 1508 1510 1514 1524 1527 1519 1510 1508 1505 1505 1505 1506 1507 1508 1510 1511 1512 1513 1515 1517 1518 1520 1521 1522 1523 1524 1525 1526 1527 1528 1529 1530 1530 1531 1532 1532 1533 1534 1535 1535 1536 1537 1537 1538 1539 1540 1540 1541
1507 1509 1511 1519 1520 1516 1511 1506 1505 1504 1504 1504 1505 1508 1509 1511 1511 1512 1513 1515 1516 1517 1519 1520 1521 1522 1523 1524 1525 1526 1527 1528 1529 1529 1530 1531 1532 1532 1533 1534 1535 1536 1536 1537 1538 1539 1540 1541 1541
1507 1508 1515 1521 1517 1511 1507 1505 1505 1504 1504 1504 1505 1507 1509 1511 1511 1512 1513 1514 1515 1516 1518 1519 1520 1521 1522 1523 1524 1524 1525 1527 1528 1528 1529 1530 1530 1531 1532 1533 1534 1535 1536 1537 1537 1538 1540 1540 1541
1507 1509 1521 1523 1515 1509 1505 1503 1504 1504 1504 1504 1505 1507 1509 1510 1510 1511 1512 1513 1514 1515 1516 1518 1519 1520 1520 1521 1522 1523 1524 1525 1526 1527 1528 1529 1529 1530 1531 1532 1533 1534 1535 1536 1537 1538 1539 1540 1541
1507 1513 1518 1516 1513 1508 1504 1502 1502 1503 1503 1503 1504 1506 1508 1509 1510 1510 1511 1512 1513 1514 1515 1516 1517 1518 1519 1520 1521 1521 1522 1523 1524 1525 1526 1527 1528 1529 1530 1531 1531 1532 1533 1534 1536 1537 1538 1539 1540
1506 1511 1513 1514 1510 1507 1502 1501 1501 1501 1502 1503 1503 1504 1505 1507 1508 1510 1510 1511 1512 1513 1514 1514 1516 1517 1517 1518 1519 1520 1521 1522 1523 1524 1525 1526 1526 1527 1528 1529 1530 1531 1532 1533 1534 1536 1537 1538 1539
1505 1513 1515 1510 1507 1503 1500 1500 1500 1500 1500 1501 1501 1502 1503 1505 1506 1508 1509 1510 1511 1511 1512 1513 1514 1515 1516 1517 1517 1518 1519 1520 1521 1522 1523 1524 1525 1526 1526 1527 1528 1529 1530 1532 1533 1534 1536 1537 1538
1504 1512 1507 1503 1501 1500 1500 1499 1500 1500 1500 1500 1500 1501 1502 1503 1504 1505 1506 1507 1508 1509 1510 1511 1512 1513 1514 1514 1515 1517 1517 1518 1519 1520 1521 1522 1523 1524 1525 1526 1527 1528 1529 1530 1531 1533 1534 1536 1537
1502 1505 1502 1500 1499 1499 1499 1499 1499 1499 1499 1498 1498 1499 1500 1502 1502 1503 1504 1505 1506 1507 1508 1509 1510 1510 1511 1512 1513 1514 1515 1516 1517 1518 1519 1520 1521 1522 1523 1524 1525 1526 1527 1528 1529 1531 1532 1534 1535
1501 1500 1499 1498 1498 1498 1498 1498 1498 1496 1496 1496 1497 1497 1498 1499 1500 1501 1502 1503 1504 1505 1506 1507 1507 1508 1509 1510 1511 1512 1513 1513 1514 1515 1516 1517 1518 1520 1521 1522 1523 1524 1525 1526 1527 1528 1530 1532 1534
1499 1498 1497 1497 1497 1497 1497 1496 1496 1494 1494 1495 1495 1496 1496 1497 1498 1499 1500 1501 1502 1502 1503 1504 1505 1505 1506 1507 1508 1509 1510 1511 1512 1513 1514 1515 1516 1517 1518 1519 1520 1522 1523 1524 1525 1526 1528 1530 1532
1497 1497 1496 1496 1495 1495 1495 1494 1494 1489 1491 1492 1492 1493 1493 1494 1495 1497 1497 1498 1499 1499 1500 1501 1502 1503 1504 1505 1506 1507 1508 1509 1510 1511 1512 1513 1514 1515 1516 1517 1518 1519 1521 1522 1523 1525 1526 1528 1530
1497 1497 1496 1494 1493 1493 1495 1494 1489 1486 1488 1488 1489 1490 1491 1491 1492 1493 1494 1495 1496 1496 1497 1498 1499 1500 1501 1502 1503 1504 1505 1506 1507 1508 1509 1510 1512 1513 1514 1515 1516 1517 1518 1520 1521 1523 1524 1526 1528
1497 1499 1499 1492 1491 1491 1496 1493 1484 1484 1485 1485 1485 1486 1487 1488 1489 1490 1491 1492 1493 1494 1495 1495 1496 1497 1499 1500 1501 1502 1503 1504 1505 1506 1507 1508 1509 1510 1511 1512 1513 1515 1516 1517 1518 1520 1522 1524 1525
1500 1502 1498 1493 1489 1490 1492 1489 1482 1482 1482 1481 1481 1482 1483 1484 1485 1487 1488 1490 1491 1492 1492 1493 1494 1495 1496 1497 1498 1499 1500 1501 1502 1503 1504 1505 1506 1508 1509 1510 1511 1512 1513 1514 1516 1517 1519 1521 1523
1501 1500 1496 1493 1488 1489 1490 1486 1480 1479 1479 1478 1478 1478 1479 1480 1482 1484 1485 1487 1488 1489 1490 1490 1491 1492 1494 1494 1495 1496 1498 1499 1500 1501 1502 1503 1504 1505 1506 1507 1508 1509 1511 1512 1513 1515 1517 1518 1520
1495 1495 1494 1490 1486 1488 1486 1483 1478 1476 1476 1475 1474 1475 1475 1477 1479 1481 1483 1484 1485 1486 1486 1487 1489 1490 1491 1491 1492 1493 1494 1496 1497 1498 1499 1500 1501 1502 1503 1504 1505 1507 1508 1509 1511 1512 1514 1516 1518
1493 1494 1493 1490 1486 1486 1485 1480 1475 1472 1471 1470 1470 1470 1471 1473 1475 1478 1479 1481 1481 1482 1483 1484 1486 1487 1488 1489 1490 1491 1492 1493 1494 1495 1496 1497 1498 1499 1500 1501 1502 1504 1505 1506 1508 1510 1511 1514 1515
1490 1492 1491 1491 1487 1484 1485 1480 1474 1468 1467 1466 1466 1466 1468 1470 1471 1474 1475 1477 1478 1479 1480 1481 1483 1484 1485 1487 1487 1488 1489 1490 1492 1492 1493 1494 1495 1496 1497 1499 1500 1501 1502 1503 1505 1507 1509 1510 1512
1489 1486 1487 1487 1491 1492 1488 1491 1475 1469 1467 1465 1464 1463 1464 1466 1468 1470 1472 1473 1475 1476 1478 1479 1480 1482 1483 1484 1485 1486 1486 1487 1488 1489 1490 1491 1492 1493 1494 1496 1497 1498 1499 1500 1502 1504 1506 1508 1509
1486 1484 1485 1485 1488 1491 1488 1491 1479 1470 1468 1464 1462 1461 1462 1463 1465 1467 1469 1470 1472 1474 1475 1477 1478 1479 1480 1481 1482 1483 1484 1485 1486 1486 1487 1488 1489 1490 1491 1493 1494 1495 1496 1498 1499 1501 1502 1504 1506
1485 1485 1485 1487 1490 1491 1484 1489 1481 1473 1466 1462 1461 1460 1460 1461 1463 1465 1467 1469 1470 1472 1473 1474 1475 1476 1478 1478 1480 1481 1481 1482 1483 1483 1484 1485 1486 1487 1488 1489 1491 1492 1493 1495 1496 1497 1499 1500 1502
1486 1491 1493 1492 1492 1485 1478 1483 1478 1466 1461 1460 1459 1459 1459 1460 1462 1463 1464 1466 1468 1469 1471 1472 1473 1474 1475 1476 1477 1478 1479 1479 1480 1480 1481 1482 1483 1484 1485 1486 1487 1489 1490 1492 1493 1494 1495 1497 1499
1488 1489 1493 1491 1488 1484 1478 1480 1472 1463 1460 1458 1458 1458 1458 1459 1460 1462 1463 1464 1466 1467 1468 1469 1470 1471 1472 1473 1474 1475 1476 1476 1477 1478 1479 1479 1480 1481 1482 1483 1484 1485 1487 1488 1490 1491 1492 1494 1495
1488 1487 1485 1489 1487 1487 1481 1476 1469 1462 1460 1460 1459 1459 1459 1459 1460 1460 1462 1463 1464 1465 1466 1467 1468 1469 1470 1470 1471 1472 1473 1473 1474 1475 1476 1476 1477 1478 1479 1480 1481 1482 1484 1485 1486 1487 1488 1490 1491
1487 1486 1489 1488 1483 1480 1477 1478 1475 1467 1464 1463 1462 1460 1459 1460 1460 1460 1461 1461 1462 1463 1464 1465 1466 1467 1467 1468 1468 1469 1470 1470 1471 1472 1472 1473 1474 1475 1476 1477 1478 1479 1480 1481 1482 1483 1484 1486 1487
1490 1489 1488 1488 1486 1482 1478 1479 1469 1468 1465 1465 1463 1461 1460 1459 1459 1459 1460 1460 1461 1461 1462 1463 1463 1464 1464 1465 1465 1466 1466 1467 1467 1468 1469 1470 1471 1472 1472 1473 1474 1475 1476 1477 1478 1479 1480 1481 1483
1488 1489 1491 1493 1488 1485 1482 1481 1468 1467 1466 1465 1463 1461 1460 1459 1459 1459 1459 1459 1459 1460 1460 1461 1461 1462 1462 1462 1463 1463 1463 1463 1464 1465 1466 1466 1467 1468 1469 1470 1470 1471 1472 1473 1474 1474 1475 1477 1478